MDT,Max TemperatureF,Mean TemperatureF,Min TemperatureF,Max Dew PointF,MeanDew PointF,Min DewpointF,Max Humidity, Mean Humidity, Min Humidity, Max Sea Level PressureIn, Mean Sea Level PressureIn, Min Sea Level PressureIn, Max VisibilityMiles, Mean VisibilityMiles, Min VisibilityMiles, Max Wind SpeedMPH, Mean Wind SpeedMPH, Max Gust SpeedMPH,PrecipitationIn, CloudCover, Events, WindDirDegrees
2012-10-1,71,62,53,43,38,34,67,44,29,30.37,30.28,30.18,10,10,6,22,10,29,0.00,2,,35
2012-10-2,82,62,42,45,37,30,81,45,15,30.17,29.99,29.88,10,10,5,10,4,,0.00,0,,160
2012-10-3,84,62,41,39,29,21,57,33,11,30.37,30.00,29.85,10,10,10,32,10,41,0.00,1,,339
2012-10-4,42,40,37,28,25,25,65,57,49,30.37,30.32,30.24,10,10,10,14,8,,0.00,5,,83
2012-10-5,41,36,30,30,27,21,87,70,56,30.32,30.26,30.19,10,10,10,15,9,16,0.00,7,,48
2012-10-6,41,36,32,30,28,21,93,76,49,30.32,30.28,30.23,10,9,2,15,9,23,0.00,8,,84
2012-10-7,55,40,24,28,21,16,100,53,22,30.25,30.14,30.05,10,10,2,10,5,,0.00,1,,200
2012-10-8,71,50,28,30,23,16,80,43,13,30.05,29.95,29.85,10,10,10,12,5,,0.00,0,,85
2012-10-9,48,42,37,36,34,23,87,69,43,30.21,30.09,29.86,10,10,10,15,5,,0.00,5,,118
2012-10-10,55,42,28,39,34,27,100,73,47,30.20,30.10,30.00,10,8,0,10,3,,0.00,0,,162
2012-10-11,62,50,39,37,35,30,87,62,37,30.29,30.14,30.01,10,10,7,14,5,17,0.00,0,,93
2012-10-12,55,42,30,43,33,27,87,70,51,30.27,30.08,29.90,10,10,10,15,5,,0.02,1,Thunderstorm,9
2012-10-13,60,52,44,45,41,36,87,69,52,30.16,29.96,29.87,10,10,10,21,9,20,0.11,7,,342
2012-10-14,68,56,44,45,39,34,87,59,30,30.29,30.22,30.16,10,10,10,13,5,,0.01,2,,186
2012-10-15,78,58,39,39,34,28,87,46,18,30.18,30.02,29.89,10,10,3,15,3,,0.00,0,,166
2012-10-16,77,60,44,39,33,23,66,41,21,29.95,29.78,29.58,10,10,9,36,8,47,0.00,2,,111
2012-10-17,57,52,46,27,14,7,35,23,16,30.01,29.87,29.72,10,10,10,31,19,40,0.00,0,,308
2012-10-18,64,46,28,25,19,12,65,40,18,30.12,30.07,30.02,10,10,9,18,9,37,0.00,0,,168
2012-10-19,71,52,33,36,25,18,62,39,20,30.11,29.97,29.87,10,10,10,10,4,,0.00,0,,88
2012-10-20,73,56,39,34,29,25,57,38,18,29.88,29.80,29.71,10,10,10,13,4,,0.00,0,,70
2012-10-21,69,56,44,37,31,25,62,42,26,29.97,29.86,29.75,10,10,9,16,5,21,0.00,0,,77
2012-10-22,64,50,37,39,36,32,93,65,37,29.97,29.87,29.74,10,10,9,9,5,,0.00,0,,32
2012-10-23,77,56,35,43,29,18,100,49,11,29.92,29.76,29.69,10,10,5,26,7,31,0.00,0,,309
2012-10-24,50,41,32,39,32,27,93,68,49,30.07,29.93,29.82,10,9,1,26,8,31,0.10,8,,32
2012-10-25,37,32,28,28,27,21,93,82,64,30.29,30.20,30.10,10,8,1,12,6,,0.03,7,,151
2012-10-26,33,28,23,27,25,21,100,85,70,30.45,30.33,30.18,10,8,0,12,6,,0.14,6,,139
2012-10-27,48,36,24,30,27,23,93,73,46,30.18,30.12,30.07,10,9,3,16,6,,0.00,3,,149
2012-10-28,57,42,28,37,32,25,93,70,41,30.14,30.08,30.03,10,10,10,8,4,,0.00,1,,82
2012-10-29,64,50,35,43,37,30,93,68,34,30.15,30.12,30.09,10,10,9,9,4,,0.00,0,,61
2012-10-30,69,53,37,37,34,30,87,52,25,30.19,30.14,30.08,10,10,10,12,5,18,0.00,0,,155
2012-10-31,69,52,35,37,33,28,93,51,23,30.19,30.16,30.13,10,10,10,9,4,,0.00,0,,120